sat.trackr.live / text

‹ back to catalog

STARLINK-34704

NORAD 65746 · 2025-216N

PAYLOAD ACTIVE UNKNOWN

§ Identity

Operator
Country
US
Launch date
2025-09-25
Launch site
AFETR
Launch vehicle
Mass (kg)
RCS (m²)

Purposes: comms

External: N2YO · Heavens-Above · Gunter

§ Orbital elements

Epoch: 2026-09-20T23:14:30.878880Z

Period
93.85 min
Inclination
53.1597°
Eccentricity
0.0000945
Mean motion
15.34403602 rev/d
Perigee alt
462.0 km
Apogee alt
463.3 km
Semi-major
6,840.8 km
B*
7.2338e-4
RAAN
143.5704°
Arg perigee
73.2076°
Mean anomaly
286.9030°
Rev number
5,646

§ Raw data

STARLINK-347041 65746U 25216N   26263.96841295  .00024146  00000+0  72338-3 0  99992 65746  53.1597 143.5704 0000945  73.2076 286.9030 15.34403602 56464

JSON: /api/v1/satellites/65746 · /tle

For live sub-satellite position, see the globe view (requires WebGL).

§ Visibility from observer

Set your observer location to see the next 7 days of passes ≥ 10°. The values pass through the URL so the page stays shareable.

No JS? Fill the form by hand. The geolocation button needs JavaScript.